Weather in Glukhovo

Russia / Tver Oblast     56°44′48″N   35°00′52″E
temp.,
°C
wind,
m/s
gust,
m/s
humid.,
%
clouds,
%
prec.,
mm/h
press.,
hPa
HPBL,
m
11 may, tue
tue1100:00+6se117017 0.0 102810
03:00+5ese117495 0.0 102910
06:00+6e11755 0.0 102932
09:00+12ene2350100 0.0 1029468
12:00+16e3437100 0.0 10281023
15:00+18e343521 0.0 10271198
18:00+17e354646 0.0 1026948
21:00+11e26735 0.0 1027102
12 may, wed
wed1200:00+9ese26850 0.0 1027113
03:00+9se23960 0.0 102749
06:00+10ese1195100 0.0 102756
09:00+16ese12681 0.0 1027527
12:00+20e355520 0.0 10251294
15:00+21ene585335 0.3 10221666
18:00+18ene61276100 1.6 10191240
21:00+14ese61288100 3.7 1019959
13 may, thu
thu1300:00+10se411891 0.3 1020696
03:00+6ese279818 0.3 1020231
06:00+7e310945 0.0 1020349
09:00+13se49719 0.0 1019762
12:00+16se595561 0.1 10181664
15:00+17sse4853100 0.1 10171697
18:00+16sse256396 0.0 1015901
21:00+11se24865 0.1 101576
14 may, fri
fri1400:00+9sse279698 0.0 1016138
03:00+8sse259757 0.0 101699
06:00+9se26956 0.0 1016192
09:00+15sse357199 0.0 1015618
12:00+18sse5866100 0.1 10151186
15:00+17sse5873100 0.3 1014811
18:00+18ese377421 0.3 1012876
21:00+14e399633 0.9 1011264
15 may, sat
sat1500:00+12ese269988 0.0 1011142
03:00+11s229890 0.0 101129
06:00+12se2396100 0.0 101094
09:00+17sse128078 0.0 1010381
12:00+20sse2369100 0.1 10091004
15:00+20se4474100 1.9 1007821
18:00+16w378999 4.3 1006236
21:00+13wsw3896100 5.6 1007317